Location: Berkeley
(37.8716°N, 122.2727°W)
Time: 00:06:41
(UTC-07:00)

Hubble Space Telescope - Visible Passes

Search period start: 29 June 2017 00:00
Search period end: 09 July 2017 00:00
Orbit: 538 x 542 km, 28.5° (Epoch: 28 June)

Date Brightness Start Highest point End Pass type
(mag) Time Alt. Az. Time Alt. Az. Time Alt. Az.
30 Jun 2.9 05:08:29 10° SSW 05:10:48 15° SSE 05:13:06 10° SE visible
01 Jul 2.7 04:58:02 10° SSW 05:00:36 16° SSE 05:03:15 10° SE visible
02 Jul 2.5 04:48:22 13° SSW 04:50:25 18° S 04:53:18 10° SE visible
03 Jul 2.4 04:38:43 16° SSW 04:40:14 20° S 04:43:17 10° SE visible
04 Jul 2.2 04:29:06 19° SSW 04:30:04 21° S 04:33:13 10° SE visible
05 Jul 2.1 04:19:33 21° S 04:19:54 22° S 04:23:06 10° SE visible
06 Jul 2.2 04:10:04 22° S 04:10:04 22° S 04:12:57 10° SE visible
07 Jul 2.4 04:00:44 19° SSE 04:00:44 19° SSE 04:02:46 10° SE visible
08 Jul 2.9 03:51:32 15° SE 03:51:32 15° SE 03:52:32 10° SE visible
